Swampscott High School MA US WEATHERSTEM current weather conditions

sailwx.info

Wind from 300 at 1 knots gusting 3

Air temperature -0.5° C
Dewpoint -3.7° C

Last reported at 2019-Dec-11 19:50 UTC.
Time now 2019-Dec-11 20:35 UTC

Location: N 42°29' W 070°55'.
View on Google Maps.

See reports from other nearby stations

  
Tides and Currents Weather Stations Pressure Air Temp Water Temp Dewpoint Dewpoint Depression Visibility Wind Speed Wind Dir Waves Ship Positions
date/time (UTC)wind fromknots sea level pressurealtimeterstation pressurevisibilityair tempwater tempwave heightnotes
2019-Dec-11 19:50 300 1 gusting 3 -0.5
2019-Dec-11 19:40 289 0 gusting 3 -0.4
2019-Dec-11 19:30 288 2 gusting 3 -0.4
2019-Dec-11 19:20 305 2 gusting 4 0.1
2019-Dec-11 19:10 230 3 gusting 6 0.3
2019-Dec-11 19:00 243 2 gusting 3 0.4
2019-Dec-11 18:50 355 1 gusting 2 0.2
2019-Dec-11 18:40 298 2 gusting 3 -0.4
2019-Dec-11 18:30 293 1 gusting 2 -0.6
2019-Dec-11 18:20 -0.6
2019-Dec-11 18:10 248 1 gusting 4 -0.4
2019-Dec-11 18:00 197 1 gusting 2 -0.2
2019-Dec-11 17:50 -0.6
2019-Dec-11 17:40 297 1 gusting 3 -0.7
2019-Dec-11 17:30 309 0 gusting 6 -0.2
2019-Dec-11 17:20 280 3 gusting 6 -0.3
2019-Dec-11 17:10 -0.2
2019-Dec-11 17:00 248 4 gusting 7 -0.3
2019-Dec-11 16:50 -0.6
2019-Dec-11 16:40 292 -0.7
2019-Dec-11 16:30 -1.0
2019-Dec-11 16:20 -1.2
2019-Dec-11 16:10 266 0 gusting 4 -1.3
2019-Dec-11 16:00 284 3 gusting 6 -1.3
2019-Dec-11 15:50 -1.2
2019-Dec-11 15:40 -1.2
2019-Dec-11 15:30 213 2 gusting 6 -1.2
2019-Dec-11 15:20 241 1 gusting 6 -1.1
2019-Dec-11 15:10 268 2 gusting 7 -1.1
2019-Dec-11 15:00 235 7 gusting 8 -1.1
2019-Dec-11 14:50 254 7 gusting 7 -0.9
2019-Dec-11 14:40 217 2 gusting 6 -0.9
2019-Dec-11 14:30 230 2 gusting 6 -1.0
2019-Dec-11 14:20 255 2 gusting 4 -1.1
2019-Dec-11 14:10 227 1 gusting 6 -1.1
2019-Dec-11 14:00 219 2 gusting 3 -1.1
2019-Dec-11 13:50 245 2 gusting 5 -1.1
2019-Dec-11 13:40 237 4 gusting 5 -1.1
2019-Dec-11 13:30 266 1 gusting 2 -1.2
2019-Dec-11 13:20 230 -1.1
2019-Dec-11 13:10 296 1 gusting 4 -1.2
2019-Dec-11 13:00 230 1 gusting 4 -1.2
2019-Dec-11 12:50 236 1 gusting 2 -1.3
2019-Dec-11 12:40 311 1 gusting 1 -1.4
2019-Dec-11 12:30 327 0 gusting 2 -1.4
2019-Dec-11 12:20 341 0 gusting 3 -1.4
2019-Dec-11 12:10 345 0 gusting 3 -1.4
2019-Dec-11 12:00 052 0 gusting 3 -1.4
2019-Dec-11 11:50 344 2 gusting 6 -1.4
2019-Dec-11 11:40 339 2 gusting 8 -1.5
2019-Dec-11 11:30 346 4 gusting 10 -1.4
2019-Dec-11 11:20 328 3 gusting 10 -1.3
2019-Dec-11 11:10 023 2 gusting 10 -1.2
2019-Dec-11 11:00 312 7 gusting 10 -1.3
2019-Dec-11 10:50 355 2 gusting 7 -1.2
2019-Dec-11 10:40 333 5 gusting 8 -1.1
2019-Dec-11 10:30 332 6 gusting 11 -1.0
2019-Dec-11 10:20 360 3 gusting 9 -0.8
2019-Dec-11 10:10 346 5 gusting 9 -0.8
2019-Dec-11 10:00 311 2 gusting 13 -0.7
2019-Dec-11 09:50 344 6 gusting 15 -0.7
2019-Dec-11 09:40 275 6 gusting 13 -0.5
2019-Dec-11 09:30 018 2 gusting 12 -0.4
2019-Dec-11 09:20 009 3 gusting 13 -0.5
2019-Dec-11 09:10 342 5 gusting 9 -0.4
2019-Dec-11 09:00 333 4 gusting 12 -0.4
2019-Dec-11 08:50 344 5 gusting 12 -0.3
2019-Dec-11 08:40 332 6 gusting 13 -0.2
2019-Dec-11 08:30 340 5 gusting 12 -0.1
2019-Dec-11 08:20 019 4 gusting 13 0.1
2019-Dec-11 08:10 325 8 gusting 14 0.2
2019-Dec-11 08:00 292 6 gusting 18 0.4
2019-Dec-11 07:50 298 15 gusting 19 0.7
2019-Dec-11 07:40 347 7 gusting 13 0.9
2019-Dec-11 07:30 319 1 gusting 15 1.2
2019-Dec-11 07:20 348 8 gusting 19 1.4
2019-Dec-11 07:10 321 12 gusting 13 2.0
2019-Dec-11 07:00 318 1 gusting 10 2.3
2019-Dec-11 06:50 347 2 gusting 8 2.4
2019-Dec-11 06:40 026 5 gusting 13 2.6
2019-Dec-11 06:30 009 6 gusting 11 2.8
2019-Dec-11 06:20 321 5 gusting 8 3.1
2019-Dec-11 06:10 305 1 gusting 6 3.1
2019-Dec-11 06:00 312 3.2
2019-Dec-11 05:50 338 0 gusting 5 3.3
2019-Dec-11 05:40 297 1 gusting 6 3.3
2019-Dec-11 05:30 306 3 gusting 6 3.4
2019-Dec-11 05:20 333 1 gusting 6 3.4
2019-Dec-11 05:10 109 2 gusting 5 3.6
2019-Dec-11 05:00 313 2 gusting 9 3.5
2019-Dec-11 04:50 064 1 gusting 9 3.7
2019-Dec-11 04:40 271 0 gusting 10 3.9
2019-Dec-11 04:30 294 1 gusting 12 4.1
2019-Dec-11 04:20 298 1 gusting 6 4.2
2019-Dec-11 04:10 038 1 gusting 11 4.4
2019-Dec-11 04:00 150 1 gusting 12 4.5
2019-Dec-11 03:50 338 4 gusting 9 4.7
2019-Dec-11 03:40 313 5 gusting 9 4.9
2019-Dec-11 03:30 345 5 gusting 12 5.2
2019-Dec-11 03:20 350 1 gusting 8 5.5
2019-Dec-11 03:10 360 3 gusting 11 5.8
2019-Dec-11 03:00 355 3 gusting 11 6.3
2019-Dec-11 02:50 327 1 gusting 6 6.6
2019-Dec-11 02:40 302 2 gusting 9 6.8
2019-Dec-11 02:30 281 3 gusting 7 7.0
2019-Dec-11 02:20 239 4 gusting 10 7.3
2019-Dec-11 02:10 344 1 gusting 4 7.5
2019-Dec-11 02:00 148 1 gusting 6 7.6
2019-Dec-11 01:50 022 0 gusting 8 7.7
2019-Dec-11 01:40 037 2 gusting 6 7.8
2019-Dec-11 01:30 346 3 gusting 13 8.3
2019-Dec-11 01:20 313 5 gusting 13 8.6
2019-Dec-11 01:10 224 9 gusting 14 8.8
2019-Dec-11 01:00 270 2 gusting 14 9.1
2019-Dec-11 00:50 324 3 gusting 12 9.4
2019-Dec-11 00:40 248 6 gusting 16 9.7
2019-Dec-11 00:30 036 3 gusting 16 10.3
2019-Dec-11 00:20 312 10 gusting 16 11.3
2019-Dec-11 00:10 182 2 gusting 13 12.4
2019-Dec-11 00:00 238 10 gusting 13 12.5
2019-Dec-10 23:50 247 13 gusting 15 12.5
2019-Dec-10 23:40 250 9 gusting 16 12.6
2019-Dec-10 23:30 192 8 gusting 17 12.6
2019-Dec-10 23:20 212 10 gusting 19 12.7
2019-Dec-10 23:10 230 12 gusting 15 12.8
2019-Dec-10 23:00 225 10 gusting 22 12.8
2019-Dec-10 22:50 240 13 gusting 18 13.0
2019-Dec-10 22:40 232 12 gusting 20 13.1
2019-Dec-10 22:30 236 11 gusting 19 13.2
2019-Dec-10 22:20 223 10 gusting 15 13.2
2019-Dec-10 22:10 192 6 gusting 17 13.2
2019-Dec-10 22:00 220 7 gusting 16 13.3
2019-Dec-10 21:50 209 8 gusting 16 13.3
2019-Dec-10 21:40 242 13 gusting 18 13.4
2019-Dec-10 21:30 237 11 gusting 16 13.4
2019-Dec-10 21:20 219 9 gusting 16 13.3
2019-Dec-10 21:10 258 8 gusting 17 13.3
2019-Dec-10 21:00 226 3 gusting 17 13.4
2019-Dec-10 20:50 181 4 gusting 18 13.4
2019-Dec-10 20:40 235 12 gusting 16 13.3
2019-Dec-10 20:30 227 8 gusting 14 13.4
2019-Dec-10 20:20 237 11 gusting 18 13.6
2019-Dec-10 20:10 226 11 gusting 15 13.6
2019-Dec-10 20:00 234 8 gusting 15 13.6
2019-Dec-10 19:50 232 14 gusting 19 13.7
2019-Dec-10 19:40 176 6 gusting 14 13.8
2019-Dec-10 19:30 202 7 gusting 19 14.2
2019-Dec-10 19:20 244 8 gusting 16 14.4
2019-Dec-10 19:10 220 11 gusting 19 14.7
2019-Dec-10 19:00 228 10 gusting 18 14.7
2019-Dec-10 18:50 171 6 gusting 19 14.8
2019-Dec-10 18:40 196 8 gusting 22 15.0
2019-Dec-10 18:30 261 18 gusting 26 15.1
2019-Dec-10 18:20 231 11 gusting 20 15.1
2019-Dec-10 18:10 249 17 gusting 17 15.2
2019-Dec-10 18:00 229 13 gusting 22 15.3
2019-Dec-10 17:50 237 9 gusting 19 15.5
2019-Dec-10 17:40 229 12 gusting 19 15.6
2019-Dec-10 17:30 206 6 gusting 20 15.6
2019-Dec-10 17:20 175 3 gusting 21 15.8
2019-Dec-10 17:10 236 19 gusting 24 16.0
2019-Dec-10 17:00 215 7 gusting 19 15.9
2019-Dec-10 16:50 242 13 gusting 19 15.9
2019-Dec-10 16:40 220 14 gusting 23 16.1
2019-Dec-10 16:30 212 15 gusting 22 16.2
2019-Dec-10 16:20 223 7 gusting 21 16.0
2019-Dec-10 16:10 236 9 gusting 18 15.8
2019-Dec-10 16:00 239 19 gusting 19 15.8
2019-Dec-10 15:50 229 13 gusting 18 15.7
2019-Dec-10 15:40 194 6 gusting 19 15.4
2019-Dec-10 15:30 227 13 gusting 19 15.6
2019-Dec-10 15:20 215 13 gusting 18 15.3
2019-Dec-10 15:10 219 8 gusting 16 15.1
2019-Dec-10 15:00 240 15 gusting 19 15.1
2019-Dec-10 14:50 263 5 gusting 21 15.1
2019-Dec-10 14:40 232 8 gusting 21 15.1
2019-Dec-10 14:30 228 15 gusting 24 14.9
2019-Dec-10 14:20 211 6 gusting 19 14.5
2019-Dec-10 14:10 175 9 gusting 15 14.3
2019-Dec-10 14:00 226 8 gusting 15 14.3
2019-Dec-10 13:50 178 5 gusting 15 14.1
2019-Dec-10 13:40 222 10 gusting 17 13.9
2019-Dec-10 13:30 240 12 gusting 13 13.7
2019-Dec-10 13:20 225 12 gusting 15 13.6
2019-Dec-10 13:10 205 7 gusting 16 13.6
2019-Dec-10 13:00 231 11 gusting 15 13.5
2019-Dec-10 12:50 230 7 gusting 17 13.5
2019-Dec-10 12:40 205 9 gusting 15 13.4
2019-Dec-10 12:30 205 8 gusting 19 13.5
2019-Dec-10 12:20 232 9 gusting 16 13.4
2019-Dec-10 12:10 244 14 gusting 16 13.5
2019-Dec-10 12:00 233 8 gusting 21 13.5
2019-Dec-10 11:50 240 11 gusting 17 13.5
2019-Dec-10 11:40 265 10 gusting 16 13.4
2019-Dec-10 11:30 242 13 gusting 15 13.6
2019-Dec-10 11:10 173 7 gusting 17 13.6
2019-Dec-10 11:00 220 10 gusting 23 13.7
2019-Dec-10 10:50 245 17 gusting 23 13.6
2019-Dec-10 10:40 189 9 gusting 18 13.6
2019-Dec-10 10:30 230 17 gusting 21 13.6
2019-Dec-10 10:20 173 6 gusting 22 13.5
2019-Dec-10 10:10 190 7 gusting 21 13.5
2019-Dec-10 10:00 225 13 gusting 20 13.6
2019-Dec-10 09:50 182 11 gusting 19 13.5
2019-Dec-10 09:40 236 12 gusting 18 13.6
2019-Dec-10 09:30 235 15 gusting 19 13.6
2019-Dec-10 09:20 236 14 gusting 21 13.6
2019-Dec-10 09:10 221 6 gusting 17 13.6
2019-Dec-10 09:00 219 11 gusting 18 13.7
2019-Dec-10 08:50 208 12 gusting 16 13.8
2019-Dec-10 08:40 222 13 gusting 19 13.8
2019-Dec-10 08:30 187 11 gusting 19 13.8
2019-Dec-10 08:20 209 12 gusting 26 13.9
2019-Dec-10 08:10 204 12 gusting 21 13.8
2019-Dec-10 08:00 202 9 gusting 19 13.7
2019-Dec-10 07:50 209 13 gusting 18 13.6
2019-Dec-10 07:40 190 5 gusting 21 13.4
2019-Dec-10 07:30 181 9 gusting 14 13.4
2019-Dec-10 07:20 223 7 gusting 15 13.4
2019-Dec-10 07:10 217 10 gusting 19 13.6
2019-Dec-10 07:00 235 12 gusting 21 13.6
2019-Dec-10 06:50 207 8 gusting 20 13.7
2019-Dec-10 06:40 234 15 gusting 21 13.9
2019-Dec-10 06:30 221 14 gusting 20 14.0
2019-Dec-10 06:20 259 12 gusting 21 13.9
2019-Dec-10 06:10 227 13 gusting 22 13.9
2019-Dec-10 06:00 175 7 gusting 26 14.1
2019-Dec-10 05:50 224 9 gusting 21 13.9
2019-Dec-10 05:40 213 8 gusting 18 13.9
2019-Dec-10 05:30 211 11 gusting 19 13.9
2019-Dec-10 05:20 222 13 gusting 20 13.8
2019-Dec-10 05:10 244 10 gusting 19 13.7
2019-Dec-10 05:00 179 6 gusting 16 13.4
2019-Dec-10 04:50 171 11 gusting 18 13.5
2019-Dec-10 04:40 177 7 gusting 21 13.6
2019-Dec-10 04:30 174 13 gusting 26 13.7
2019-Dec-10 04:20 229 10 gusting 26 13.7
2019-Dec-10 04:10 210 13 gusting 23 13.3
2019-Dec-10 04:00 219 13 gusting 25 12.7
2019-Dec-10 03:50 203 10 gusting 20 12.6
2019-Dec-10 03:40 217 19 gusting 23 12.8
2019-Dec-10 03:30 177 11 gusting 18 12.5
2019-Dec-10 03:20 231 8 gusting 17 12.2
2019-Dec-10 03:10 232 15 gusting 17 12.2
2019-Dec-10 03:00 179 7 gusting 18 12.3
2019-Dec-10 02:50 193 5 gusting 18 12.2
2019-Dec-10 02:40 196 12 gusting 14 12.1
2019-Dec-10 02:30 205 8 gusting 15 11.8
2019-Dec-10 02:20 189 10 gusting 13 11.6
2019-Dec-10 02:10 184 9 gusting 16 11.6
2019-Dec-10 02:00 191 9 gusting 14 11.6
2019-Dec-10 01:50 184 8 gusting 19 11.6
2019-Dec-10 01:40 196 7 gusting 15 11.6
2019-Dec-10 01:30 196 6 gusting 18 11.7
2019-Dec-10 01:20 211 7 gusting 12 11.4
2019-Dec-10 01:10 167 6 gusting 13 11.4
2019-Dec-10 01:00 187 6 gusting 15 11.6
2019-Dec-10 00:50 218 10 gusting 18 11.4
2019-Dec-10 00:40 191 8 gusting 16 11.5
2019-Dec-10 00:30 182 6 gusting 13 11.4
2019-Dec-10 00:20 219 7 gusting 14 11.4
2019-Dec-10 00:10 210 8 gusting 13 11.3
2019-Dec-10 00:00 225 8 gusting 12 11.4
2019-Dec-09 23:50 196 7 gusting 12 11.4
2019-Dec-09 23:40 213 8 gusting 15 11.5
2019-Dec-09 23:30 200 7 gusting 11 11.5
2019-Dec-09 23:20 223 7 gusting 13 11.2
2019-Dec-09 23:10 169 9 gusting 13 11.2
2019-Dec-09 23:00 181 4 gusting 13 11.1
2019-Dec-09 22:50 211 8 gusting 13 11.1
2019-Dec-09 22:40 232 9 gusting 16 11.2
2019-Dec-09 22:30 218 6 gusting 13 11.1
2019-Dec-09 22:20 186 6 gusting 13 11.1
2019-Dec-09 22:10 211 8 gusting 14 11.2
2019-Dec-09 22:00 168 13 gusting 15 11.1
2019-Dec-09 21:50 194 10 gusting 18 11.1
2019-Dec-09 21:40 194 8 gusting 14 11.2
2019-Dec-09 21:30 223 7 gusting 16 11.2
2019-Dec-09 21:20 201 8 gusting 17 11.1
2019-Dec-09 21:10 198 8 gusting 18 11.3
2019-Dec-09 21:00 185 9 gusting 19 11.5
2019-Dec-09 20:50 200 15 gusting 22 11.7
2019-Dec-09 20:40 193 8 gusting 23 11.7
2019-Dec-09 20:30 183 13 gusting 27 11.6
2019-Dec-09 20:20 200 21 gusting 21 11.3
2019-Dec-09 20:10 192 10 gusting 21 11.4
2019-Dec-09 20:00 211 18 gusting 24 11.4